Location: Columbia
(38.9520°N, 92.3340°W)
Time: 02:06:56
(UTC-05:00)

FENGYUN 3A - Visible Passes

Search period start: 25 June 2016 00:00
Search period end: 05 July 2016 00:00
Orbit: 820 x 833 km, 98.5° (Epoch: 24 June)

Date Brightness Start Highest point End Pass type
(mag) Time Alt. Az. Time Alt. Az. Time Alt. Az.
26 Jun 6.3 22:22:15 10° WSW 22:24:40 13° W 22:27:05 10° WNW visible
27 Jun 6.0 22:01:42 10° SW 22:05:35 20° W 22:09:30 10° NW visible
28 Jun 5.4 21:41:53 10° SSW 21:46:34 30° W 21:51:17 10° NW visible
29 Jun 4.8 21:22:28 10° S 21:27:36 44° W 21:32:47 10° NNW visible
30 Jun 4.1 21:03:19 10° S 21:08:41 66° WSW 21:14:06 10° NNW visible
01 Jul 6.4 22:29:15 10° WSW 22:30:40 11° W 22:32:06 10° WNW visible
02 Jul 6.1 22:08:06 10° SW 22:11:35 17° W 22:15:05 10° NW visible
03 Jul 5.6 21:48:05 10° SSW 21:52:33 26° W 21:57:01 10° NW visible
04 Jul 5.0 21:28:33 10° SSW 21:33:34 38° W 21:38:36 10° NNW visible
